Stations météo

Publicité
Bezier-Vias, France (7638): Température de l'air & dewpoint: 16.01.2019 03:00:00 - 22.01.2019 03:00:00 (CET)Bezier-Vias, France (7638): Vitesse du vent & gusts: 16.01.2019 03:00:00 - 22.01.2019 03:00:00 (CET)Bezier-Vias, France (7638): Direction du vent: 16.01.2019 03:00:00 - 22.01.2019 03:00:00 (CET)Bezier-Vias, France (7638): reduced air pressure: 16.01.2019 03:00:00 - 22.01.2019 03:00:00 (CET)Bezier-Vias, France (7638): visibility: 16.01.2019 03:00:00 - 22.01.2019 03:00:00 (CET)Bezier-Vias, France (7638): Quantités de précipitations: 16.01.2019 03:00:00 - 22.01.2019 03:00:00 (CET)
Date & Time tt [°C] td [°C] ff [km/h] ff [knt] fx [km/h] fx [knt] dd ppp [hPa] vv [km] rr [mm]
22.01.2019 03:00:00 1,9 -2,4 14 8 34 18 WNW 1017,2 46 0,0
22.01.2019 02:00:00 2,5 -2,0 13 7 35 19 WNW 1017,7 56 0,0
22.01.2019 01:00:00 4,3 -0,5 18 10 39 21 WNW 1018,1 53 0,0
22.01.2019 00:00:00 5,0 0,6 24 13 38 21 WNW 1018,5 49 0,0
21.01.2019 23:00:00 5,4 0,9 23 12 40 22 W 1018,4 55 0,0
21.01.2019 22:00:00 5,6 1,1 23 12 38 20 W 1018,5 58 0,0
21.01.2019 21:00:00 6,1 1,0 27 15 40 22 W 1018,4 60 0,0
21.01.2019 20:00:00 6,1 0,6 17 9 32 18 W 1018,3 60 0,0
21.01.2019 19:00:00 6,5 0,0 22 12 34 18 WNW 1017,9 60 0,0
21.01.2019 18:00:00 6,8 0,2 20 11 35 19 WNW 1017,6 60 0,0
21.01.2019 17:00:00 8,5 0,0 20 11 35 19 NW 1017,4 59 0,0
21.01.2019 16:00:00 9,0 0,2 29 16 50 27 WNW 1017,3 53 0,0
21.01.2019 15:00:00 10,7 0,4 29 16 46 25 WNW 1017,1 57 0,0
21.01.2019 14:00:00 10,6 -0,3 24 13 41 22 NNW 1017,0 59 0,0
21.01.2019 13:00:00 10,9 0,6 29 15 43 23 NNW 1017,3 27 0,0
21.01.2019 12:00:00 10,5 1,6 23 12 37 20 NW 1017,9 60 0,0
21.01.2019 11:00:00 9,3 2,4 28 15 44 24 NW 1017,9 60 0,0
21.01.2019 10:00:00 7,9 3,2 19 11 34 18 NNW 1017,7 60 0,0
21.01.2019 09:00:00 2,9 2,0 6 3 15 8 W 1017,2 40 0,0
21.01.2019 08:00:00 2,0 1,1 12 6 16 9 WNW 1016,8 55 0,0
21.01.2019 07:00:00 1,7 0,8 5 3 8 4 NNW 1016,4 45 0,0
21.01.2019 06:00:00 2,8 2,1 3 2 9 5 S 1015,9 53 0,0
21.01.2019 05:00:00 2,4 1,5 5 3 11 6 W 1015,8 57 0,0
21.01.2019 04:00:00 2,7 2,0 11 6 15 8 NW 1015,7 60 0,0
21.01.2019 03:00:00 2,6 1,9 5 3 9 5 WNW 1016,0 16 0,0
21.01.2019 02:00:00 2,5 1,8 6 4 16 8 NNW 1015,8 16 0,0
21.01.2019 01:00:00 1,9 1,2 13 7 16 9 NW 1015,8 9 0,0
21.01.2019 00:00:00 1,8 0,9 4 2 11 6 W 1015,8 4,0 0,0
20.01.2019 23:00:00 1,6 0,7 5 3 13 7 NW 1015,5 4,5 0,0
20.01.2019 22:00:00 2,5 1,5 4 2 6 4 WNW 1015,2 1,5 0,0
20.01.2019 21:00:00 2,9 1,9 7 4 13 7 WNW 1015,1 3,0 0,0
20.01.2019 20:00:00 4,2 2,9 4 2 8 5 W 1014,9 4,9 0,0
20.01.2019 19:00:00 5,5 4,0 5 3 8 5 NW 1014,6 19 0,0
20.01.2019 18:00:00 6,9 4,7 3 2 9 5 W 1014,1 60 0,0
20.01.2019 17:00:00 7,6 5,1 6 3 14 7 N 1014,1 60 0,0
20.01.2019 16:00:00 7,7 5,5 10 5 24 13 NE 1013,5 60 0,0
20.01.2019 15:00:00 7,6 6,1 16 9 28 15 NNE 1013,1 19 0,0
20.01.2019 14:00:00 7,8 5,9 19 10 31 17 NNE 1013,1 20 0,0
20.01.2019 13:00:00 7,2 5,8 16 9 29 16 NNE 1013,3 6 0,2
20.01.2019 12:00:00 7,3 5,1 18 10 30 16 N 1013,3 33 0,0
20.01.2019 11:00:00 6,6 4,8 16 9 31 17 NNE 1012,9 26 0,0
20.01.2019 10:00:00 5,8 4,0 16 9 27 14 NNE 1012,0 23 0,0
20.01.2019 09:00:00 5,3 3,6 17 9 31 17 NNE 1011,5 23 0,0
20.01.2019 08:00:00 5,0 3,3 22 12 35 19 NE 1010,8 18 0,2
20.01.2019 07:00:00 4,8 3,1 16 9 33 18 NNE 1010,6 7 0,8
20.01.2019 06:00:00 4,8 3,1 22 12 35 19 NNE 1010,1 9 0,4
20.01.2019 05:00:00 5,6 1,5 19 10 32 17 NE 1010,2 30 0,0
20.01.2019 04:00:00 5,9 0,8 19 10 28 15 NE 1010,7 37 0,0
20.01.2019 03:00:00 5,8 1,3 18 10 26 14 NE 1011,1 46 0,0
20.01.2019 02:00:00 5,3 1,9 16 9 22 12 NE 1011,0 44 0,0
20.01.2019 01:00:00 5,0 2,2 15 8 19 11 ENE 1011,3 36 0,0
20.01.2019 00:00:00 5,6 2,4 4 2 26 14 N 1011,8 41 0,0
19.01.2019 23:00:00 5,1 2,4 14 8 21 11 NNE 1011,6 31 0,0
19.01.2019 22:00:00 4,4 2,3 16 8 20 11 NNE 1011,8 22 0,0
19.01.2019 21:00:00 4,1 2,1 10 6 13 7 NNE 1012,2 36 0,0
19.01.2019 20:00:00 4,5 1,7 6 3 8 4 NNE 1012,5 49 0,0
19.01.2019 19:00:00 6,3 2,9 5 3 8 5 ESE 1012,4 60 0,0
19.01.2019 18:00:00 7,6 3,4 3 2 16 8 S 1012,5 60 0,0
19.01.2019 17:00:00 8,4 3,4 11 6 19 10 S 1012,6 60 0,0
19.01.2019 16:00:00 9,4 4,0 11 6 22 12 S 1012,8 41 0,0
19.01.2019 15:00:00 10,9 2,5 7 4 17 9 SW 1013,0 51 0,0
19.01.2019 14:00:00 9,9 2,7 7 4 18 10 SW 1013,6 25 0,0
19.01.2019 13:00:00 10,0 3,3 10 5 21 12 W 1014,7 45 0,0
19.01.2019 12:00:00 7,9 2,6 8 4 13 7 WSW 1015,7 47 0,0
19.01.2019 11:00:00 6,0 2,8 8 4 12 6 WSW 1016,3 37 0,0
19.01.2019 10:00:00 5,0 2,2 3 2 11 6 W 1015,8 55 0,0
19.01.2019 09:00:00 1,1 -0,1 3 2 11 6 ESE 1015,6 41 0,0
19.01.2019 08:00:00 -0,6 -2,0 3 2 8 4 NE 1015,5 25 0,0
19.01.2019 07:00:00 -0,1 -2,0 3 2 13 7 SW 1015,1 37 0,0
19.01.2019 06:00:00 1,0 -1,4 3 1 14 8 WNW 1014,7 56 0,0
19.01.2019 05:00:00 2,0 -0,4 7 4 16 8 NW 1015,2 58 0,0
19.01.2019 04:00:00 3,2 0,4 8 4 18 10 NNW 1015,7 55 0,0
19.01.2019 03:00:00 3,9 1,1 0 0 11 6 N 1016,2 41 0,0
19.01.2019 02:00:00 4,0 0,7 5 3 12 7 W 1016,1 40 0,0
19.01.2019 01:00:00 4,1 1,0 4 2 10 5 NE 1016,4 16 0,0
19.01.2019 00:00:00 4,8 1,8 6 3 16 9 WNW 1016,7 30 0,0
18.01.2019 23:00:00 5,4 1,1 2 1 9 5 NW 1016,6 40 0,0
18.01.2019 22:00:00 4,9 1,2 8 5 14 7 W 1016,4 48 0,0
18.01.2019 21:00:00 5,2 0,6 7 4 15 8 NNW 1016,4 58 0,0
18.01.2019 20:00:00 6,3 0,8 9 5 16 9 N 1016,4 60 0,0
18.01.2019 19:00:00 7,6 0,8 11 6 23 12 NW 1016,3 60 0,0
18.01.2019 18:00:00 7,0 1,1 8 5 22 12 NW 1016,2 60 0,0
18.01.2019 17:00:00 8,6 1,5 12 7 27 15 NNW 1016,1 60 0,0
18.01.2019 16:00:00 9,1 1,3 16 9 25 13 NNW 1016,2 60 0,0
18.01.2019 15:00:00 9,2 2,1 14 7 28 15 N 1016,2 60 0,0
18.01.2019 14:00:00 9,6 2,2 21 11 29 16 N 1016,6 59 0,0
18.01.2019 13:00:00 10,3 1,4 14 8 38 21 N 1017,0 55 0,0
18.01.2019 12:00:00 9,9 3,4 13 7 24 13 W 1018,0 52 0,0
18.01.2019 11:00:00 8,9 1,8 13 7 23 12 WNW 1018,5 46 0,0
18.01.2019 10:00:00 5,3 2,3 12 7 19 10 W 1018,7 33 0,0
18.01.2019 09:00:00 1,3 0,1 8 5 14 8 W 1018,8 19 0,0
18.01.2019 08:00:00 1,9 0,4 13 7 24 13 W 1018,5 44 0,0
18.01.2019 07:00:00 1,8 0,2 13 7 20 11 WNW 1018,2 60 0,0
18.01.2019 06:00:00 1,3 -0,2 12 6 19 10 W 1018,4 60 0,0
18.01.2019 05:00:00 1,9 0,6 11 6 16 9 W 1018,6 60 0,0
18.01.2019 04:00:00 1,0 -0,6 6 3 10 6 W 1018,8 37 0,0
18.01.2019 03:00:00 2,8 1,0 6 3 21 11 WSW 1019,0 60 0,0
18.01.2019 02:00:00 2,1 0,2 11 6 16 9 WNW 1018,7 55 0,0
18.01.2019 01:00:00 4,1 1,6 13 7 24 13 NW 1018,8 60 0,0
18.01.2019 00:00:00 5,0 2,5 16 9 25 13 W 1018,9 60 0,0
17.01.2019 23:00:00 4,3 2,2 16 9 21 12 WNW 1018,7 52 0,0
17.01.2019 22:00:00 4,6 2,0 15 8 18 10 NW 1018,4 59 0,0
17.01.2019 21:00:00 6,7 3,3 9 5 21 11 NNW 1018,2 60 0,0
17.01.2019 20:00:00 6,9 2,0 12 6 21 11 WNW 1017,8 60 0,0
17.01.2019 19:00:00 8,6 2,4 5 3 19 10 W 1017,5 60 0,0
17.01.2019 18:00:00 9,5 2,1 13 7 30 16 W 1017,0 60 0,0
17.01.2019 17:00:00 11,0 1,8 21 11 33 18 WNW 1016,4 60 0,0
17.01.2019 16:00:00 11,8 1,1 17 9 35 19 NW 1016,2 60 0,0
17.01.2019 15:00:00 12,2 -0,4 24 13 41 22 NW 1015,9 59 0,0
17.01.2019 14:00:00 13,5 2,1 25 13 38 21 NW 1015,8 41 0,0
17.01.2019 13:00:00 11,3 5,8 21 12 34 19 W 1016,1 47 0,0
17.01.2019 12:00:00 10,6 6,0 19 10 31 17 W 1016,4 29 0,0
17.01.2019 11:00:00 8,5 4,5 12 6 22 12 W 1016,6 20 0,0
17.01.2019 10:00:00 6,9 4,4 11 6 21 11 W 1016,3 19 0,0
17.01.2019 09:00:00 3,7 2,7 8 4 16 9 WNW 1016,0 12 0,0
17.01.2019 08:00:00 2,5 1,3 10 6 12 6 NW 1015,5 10 0,0
17.01.2019 07:00:00 1,6 0,4 3 2 13 7 WNW 1015,4 7 0,0
17.01.2019 06:00:00 1,7 0,1 10 5 16 8 W 1015,3 8 0,0
17.01.2019 05:00:00 3,5 1,4 9 5 28 15 W 1015,7 13 0,0
17.01.2019 04:00:00 6,2 3,4 5 3 15 8 WSW 1015,6 18 0,0
17.01.2019 03:00:00 6,8 3,8 11 6 21 11 W 1016,4 19 0,0
17.01.2019 02:00:00 8,0 5,1 11 6 19 10 W 1016,4 20 0,0
17.01.2019 01:00:00 9,1 6,7 6 3 19 10 NNW 1016,7 25 0,0
17.01.2019 00:00:00 9,4 6,8 14 7 23 12 N 1016,9 20 0,0
16.01.2019 23:00:00 9,0 6,8 15 8 22 12 NNE 1016,9 19 0,0
16.01.2019 22:00:00 9,2 6,8 13 7 23 12 NNE 1016,6 17 0,0
16.01.2019 21:00:00 9,3 6,9 12 6 17 9 N 1016,4 19 0,0
16.01.2019 20:00:00 7,8 6,1 14 8 17 9 N 1016,4 15 0,0
16.01.2019 19:00:00 7,1 4,9 13 7 16 9 N 1016,3 17 0,0
16.01.2019 18:00:00 10,4 6,5 9 5 21 11 NE 1016,2 24 0,0
16.01.2019 17:00:00 10,8 6,3 13 7 22 12 NNE 1016,5 32 0,0
16.01.2019 16:00:00 10,9 6,4 11 6 16 9 NE 1016,7 18 0,0
16.01.2019 15:00:00 10,8 5,3 10 5 16 9 ENE 1017,0 36 0,0
16.01.2019 14:00:00 10,7 4,8 11 6 16 9 ENE 1017,4 37 0,0
16.01.2019 13:00:00 10,3 3,8 5 3 18 10 ENE 1018,4 50 0,0
16.01.2019 12:00:00 8,1 2,5 11 6 19 10 NE 1019,2 35 0,0
16.01.2019 11:00:00 5,3 1,0 8 5 19 10 N 1020,0 42 0,0
16.01.2019 10:00:00 3,2 0,8 11 6 18 10 NNE 1019,9 15 0,0
16.01.2019 09:00:00 -0,7 -1,7 3 2 6 3 N 1019,9 3,4 0,0
16.01.2019 08:00:00 -1,2 -2,3 0 0 10 5 N 1019,7 28 0,0
16.01.2019 07:00:00 -1,2 -2,3 4 2 10 6 NNW 1019,7 30 0,0
16.01.2019 06:00:00 -1,3 -2,4 6 3 10 5 NNW 1019,7 20 0,0
16.01.2019 05:00:00 -1,5 -2,6 6 4 9 5 NNW 1020,0 19 0,0
16.01.2019 04:00:00 -0,9 -2,0 4 2 8 4 N 1020,2 20 0,0
16.01.2019 03:00:00 -0,8 -2,1 4 2 9 5 N 1020,4 11 0,0

tt = Température de l'air
td = dewpoint
ff = Vitesse du vent
fx = gusts
dd = Direction du vent
ppp = reduced air pressure
vv = visibility
rr = Quantités de précipitations

stations d'obs. à proximité